Time,TemperatureF,DewpointF,PressureIn,WindDirection,WindDirectionDegrees,WindSpeedMPH,WindSpeedGustMPH,Humidity,HourlyPrecipIn,Conditions,Clouds,dailyrainin,SoftwareType,DateUTC
2013-03-01 00:00:00,26.8,25.3,29.84,NW,315,6.0,14.0,94,0.00,,,-99.99,WeatherLink 5.6,2013-03-01 05:00:00,
2013-03-01 00:30:00,26.9,25.4,29.83,NW,315,4.0,14.0,94,0.00,,,-99.99,WeatherLink 5.6,2013-03-01 05:30:00,
2013-03-01 01:00:00,27.0,25.5,29.83,WNW,292,5.0,13.0,94,0.00,,,-99.99,WeatherLink 5.6,2013-03-01 06:00:00,
2013-03-01 01:30:00,27.0,25.8,29.83,NW,315,6.0,12.0,95,0.00,,,-99.99,WeatherLink 5.6,2013-03-01 06:30:00,
2013-03-01 02:00:00,27.0,25.5,29.82,NW,315,3.0,11.0,94,0.00,,,-99.99,WeatherLink 5.6,2013-03-01 07:00:00,
2013-03-01 02:30:00,27.1,25.6,29.82,NW,315,5.0,14.0,94,0.00,,,-99.99,WeatherLink 5.6,2013-03-01 07:30:00,
2013-03-01 03:00:00,27.1,25.9,29.81,NW,315,4.0,11.0,95,0.00,,,-99.99,WeatherLink 5.6,2013-03-01 08:00:00,
2013-03-01 03:30:00,27.1,25.9,29.80,WNW,292,5.0,11.0,95,0.00,,,-99.99,WeatherLink 5.6,2013-03-01 08:30:00,
2013-03-01 04:00:00,27.2,26.0,29.80,NW,315,3.0,9.0,95,0.00,,,-99.99,WeatherLink 5.6,2013-03-01 09:00:00,
2013-03-01 04:30:00,27.2,26.0,29.80,NW,315,3.0,13.0,95,0.00,,,-99.99,WeatherLink 5.6,2013-03-01 09:30:00,
2013-03-01 05:00:00,27.3,26.1,29.81,NW,315,2.0,11.0,95,0.00,,,-99.99,WeatherLink 5.6,2013-03-01 10:00:00,
2013-03-01 05:30:00,27.4,26.2,29.82,WNW,292,3.0,10.0,95,0.00,,,-99.99,WeatherLink 5.6,2013-03-01 10:30:00,
2013-03-01 06:00:00,27.4,26.2,29.83,WNW,292,4.0,11.0,95,0.00,,,-99.99,WeatherLink 5.6,2013-03-01 11:00:00,
2013-03-01 06:30:00,27.6,26.4,29.83,WNW,292,4.0,12.0,95,0.00,,,-99.99,WeatherLink 5.6,2013-03-01 11:30:00,
2013-03-01 07:00:00,27.5,26.3,29.82,NW,315,1.0,5.0,95,0.00,,,-99.99,WeatherLink 5.6,2013-03-01 12:00:00,
2013-03-01 07:30:00,27.7,26.5,29.82,NW,315,1.0,8.0,95,0.00,,,-99.99,WeatherLink 5.6,2013-03-01 12:30:00,
2013-03-01 08:00:00,27.7,26.5,29.83,NW,315,2.0,7.0,95,0.00,,,-99.99,WeatherLink 5.6,2013-03-01 13:00:00,
2013-03-01 08:30:00,27.8,26.6,29.84,NW,315,4.0,10.0,95,0.00,,,-99.99,WeatherLink 5.6,2013-03-01 13:30:00,
2013-03-01 09:00:00,28.0,26.8,29.84,WNW,292,2.0,9.0,95,0.00,,,-99.99,WeatherLink 5.6,2013-03-01 14:00:00,
2013-03-01 09:30:00,28.2,27.0,29.85,NW,315,3.0,9.0,95,0.00,,,-99.99,WeatherLink 5.6,2013-03-01 14:30:00,
2013-03-01 10:00:00,28.4,27.2,29.84,NW,315,3.0,11.0,95,0.00,,,-99.99,WeatherLink 5.6,2013-03-01 15:00:00,
2013-03-01 10:30:00,28.5,27.3,29.84,NW,315,1.0,7.0,95,0.00,,,-99.99,WeatherLink 5.6,2013-03-01 15:30:00,
2013-03-01 11:00:00,29.0,27.7,29.84,NNW,337,1.0,6.0,95,0.00,,,-99.99,WeatherLink 5.6,2013-03-01 16:00:00,
2013-03-01 11:30:00,29.2,27.9,29.84,NW,315,0.0,6.0,95,0.00,,,-99.99,WeatherLink 5.6,2013-03-01 16:30:00,
2013-03-01 12:00:00,29.6,28.3,29.85,North,-999,0.0,0.0,95,0.00,,,-99.99,WeatherLink 5.6,2013-03-01 17:00:00,
2013-03-01 12:30:00,29.6,28.3,29.84,North,-999,0.0,0.0,95,0.01,,,-99.99,WeatherLink 5.6,2013-03-01 17:30:00,
2013-03-01 13:00:00,29.3,28.0,29.84,North,-999,0.0,0.0,95,0.01,,,-99.99,WeatherLink 5.6,2013-03-01 18:00:00,
2013-03-01 13:30:00,29.6,28.1,29.83,North,-999,0.0,0.0,94,0.01,,,-99.99,WeatherLink 5.6,2013-03-01 18:30:00,
2013-03-01 14:00:00,29.6,28.3,29.82,North,-999,0.0,0.0,95,0.02,,,-99.99,WeatherLink 5.6,2013-03-01 19:00:00,
2013-03-01 14:30:00,29.6,28.1,29.81,North,-999,0.0,0.0,94,0.02,,,-99.99,WeatherLink 5.6,2013-03-01 19:30:00,
2013-03-01 15:00:00,29.6,27.8,29.81,North,-999,0.0,0.0,93,0.02,,,-99.99,WeatherLink 5.6,2013-03-01 20:00:00,
2013-03-01 15:30:00,29.9,28.1,29.81,North,-999,0.0,0.0,93,0.02,,,-99.99,WeatherLink 5.6,2013-03-01 20:30:00,
2013-03-01 16:00:00,30.1,28.3,29.81,North,-999,0.0,0.0,93,0.01,,,-99.99,WeatherLink 5.6,2013-03-01 21:00:00,
2013-03-01 16:30:00,30.2,28.4,29.82,North,-999,0.0,0.0,93,0.01,,,-99.99,WeatherLink 5.6,2013-03-01 21:30:00,
2013-03-01 17:00:00,30.4,28.4,29.82,North,-999,0.0,0.0,92,0.01,,,-99.99,WeatherLink 5.6,2013-03-01 22:00:00,
2013-03-01 17:30:00,30.0,28.0,29.83,North,-999,0.0,0.0,92,0.00,,,-99.99,WeatherLink 5.6,2013-03-01 22:30:00,
2013-03-01 18:00:00,29.4,27.6,29.84,North,-999,0.0,0.0,93,0.00,,,-99.99,WeatherLink 5.6,2013-03-01 23:00:00,
2013-03-01 18:30:00,29.2,27.4,29.84,North,-999,0.0,0.0,93,0.00,,,-99.99,WeatherLink 5.6,2013-03-01 23:30:00,
2013-03-01 19:00:00,29.2,27.7,29.85,North,-999,0.0,0.0,94,0.00,,,-99.99,WeatherLink 5.6,2013-03-02 00:00:00,
2013-03-01 19:30:00,29.2,27.7,29.84,North,-999,0.0,0.0,94,0.00,,,-99.99,WeatherLink 5.6,2013-03-02 00:30:00,
2013-03-01 20:00:00,29.1,27.6,29.84,North,-999,0.0,0.0,94,0.00,,,-99.99,WeatherLink 5.6,2013-03-02 01:00:00,
2013-03-01 20:30:00,29.0,27.7,29.85,North,-999,0.0,0.0,95,0.00,,,-99.99,WeatherLink 5.6,2013-03-02 01:30:00,
2013-03-01 21:00:00,28.5,27.3,29.85,North,-999,0.0,0.0,95,0.00,,,-99.99,WeatherLink 5.6,2013-03-02 02:00:00,
2013-03-01 21:30:00,28.3,27.1,29.86,North,-999,0.0,0.0,95,0.00,,,-99.99,WeatherLink 5.6,2013-03-02 02:30:00,
2013-03-01 22:00:00,28.0,26.8,29.86,North,-999,0.0,0.0,95,0.00,,,-99.99,WeatherLink 5.6,2013-03-02 03:00:00,
2013-03-01 22:30:00,28.1,26.9,29.86,North,-999,0.0,0.0,95,0.00,,,-99.99,WeatherLink 5.6,2013-03-02 03:30:00,
2013-03-01 23:00:00,27.7,26.5,29.85,North,-999,0.0,0.0,95,0.00,,,-99.99,WeatherLink 5.6,2013-03-02 04:00:00,
2013-03-01 23:30:00,27.7,26.5,29.84,North,-999,0.0,0.0,95,0.00,,,-99.99,WeatherLink 5.6,2013-03-02 04:30:00,